Вернуться в каталог

COSMOS 1275 DEB

АктивенPO
NORAD 39966·DEBRIS·🇷🇺 Russia

Запущен Jun 4, 1981 с Plesetsk Cosmodrome

Loading…

Ближайшие Пролёты (ближайшие 24 часа)

TLE

СвежийSource: Space-Track

Эпоха: Sep 14, 2026, 12:50 UTC

1 39966U 81053PC  26257.53526265  .00000874  00000-0  53992-3 0  9996
2 39966  82.7042 287.3737 0041671 112.4457  41.7022 14.03864992625665

Отслеживайте COSMOS 1275 DEB в реальном времени с AllMySat

Download on the App Store